This demonstration page uses our WeatherBlox Daily Observations layout. Learn more.

40.92945, -100.16068

Hourly Observations for June 13, 2015

Temp ( °F °C ) Dew Point ( °F °C ) Humidity (%) Winds ( mph kmh ) Pressure ( in mb ) Visibility ( mi km ) Precip ( " mm )
12:15 am 00:15 Clear 61 16.1 59 15 93 93 S 6 9 29.88 1012 10 16.0934 N/A
12:35 am 00:35 Clear 61 16 59 15 94 94 S 5 7 29.88 1012 7 11.26538 N/A
12:55 am 00:55 Clear 60 15.8 59 15 95 95 S 6 9 29.85 1011 7 11.26538 N/A
1:15 am 01:15 Clear 60 15.7 59 14.9 95 95 S 6 9 29.85 1011 7 11.26538 N/A
1:35 am 01:35 Clear 59 15.2 58 14.4 95 95 S 3 6 29.88 1012 7 11.26538 N/A
1:55 am 01:55 Clear 59 15 57 14 94 94 S 5 7 29.88 1012 7 11.26538 N/A
2:15 am 02:15 Clear 58 14.5 57 13.7 95 95 S 6 9 29.88 1012 7 11.26538 N/A
2:35 am 02:35 Clear with Mist and Fog 58 14.3 56 13.6 96 96 S 5 7 29.88 1012 5 8.0467 N/A
2:55 am 02:55 Clear with Mist and Fog 58 14.3 56 13.6 96 96 SSW 3 6 29.85 1011 4 6.43736 N/A
3:15 am 03:15 Clear with Mist and Fog 57 14 56 13.3 96 96 SW 3 6 29.85 1011 4 6.43736 N/A
3:35 am 03:35 Clear with Mist and Fog 57 14.1 56 13.5 96 96 Calm 29.85 1011 4 6.43736 N/A
3:55 am 03:55 Mostly Cloudy with Mist and Fog 57 14.1 56 13.5 96 96 Calm 29.85 1011 1.25 2.011675 N/A
4:15 am 04:15 Mostly Cloudy with Fog 54 12 52 11.3 96 96 Calm 29.85 1011 0.25 0.402335 N/A
4:35 am 04:35 Cloudy with Fog 55 12.8 54 12.1 96 96 Calm 29.85 1011 5 8.0467 N/A
4:55 am 04:55 Mostly Cloudy with Fog 55 12.9 54 12.4 97 97 Calm 29.85 1011 0.25 0.402335 N/A
5:15 am 05:15 Mostly Cloudy with Fog 54 12.1 53 11.6 97 97 Calm 29.85 1011 0.5 0.80467 N/A
5:35 am 05:35 Mostly Cloudy with Fog 54 12.1 53 11.6 97 97 Calm 29.85 1011 0.5 0.80467 N/A
5:55 am 05:55 Mostly Cloudy with Fog 55 12.5 54 12 97 97 Calm 29.85 1011 0.25 0.402335 N/A
6:15 am 06:15 Mostly Cloudy with Mist and Fog 54 12 53 11.5 97 97 Calm 29.91 1013 0.75 1.207005 N/A
6:35 am 06:35 Sunny with Mist and Fog 55 12.6 54 12.1 97 97 S 6 9 29.88 1012 2.5 4.02335 N/A
6:55 am 06:55 Sunny with Mist and Fog 57 14 56 13.6 97 97 SSE 7 11 29.88 1012 2.5 4.02335 N/A
7:15 am 07:15 Mostly Cloudy with Mist and Fog 58 14.5 57 14.1 97 97 SE 6 9 29.88 1012 1.5 2.41401 N/A
7:35 am 07:35 Cloudy with Fog 59 15 58 14.5 97 97 SSE 5 7 29.88 1012 0.5 0.80467 N/A
7:55 am 07:55 Cloudy with Fog 59 15.2 59 14.8 97 97 S 7 11 29.88 1012 0.5 0.80467 N/A
8:15 am 08:15 Cloudy with Mist and Fog 61 15.9 60 15.5 97 97 S 5 7 29.85 1011 1 1.60934 N/A
8:35 am 08:35 Mostly Cloudy with Mist and Fog 62 16.5 61 16 97 97 S 5 7 29.85 1011 4 6.43736 N/A
8:55 am 08:55 Partly Cloudy 64 17.5 63 17 97 97 SSE 5 7 29.83 1010 7 11.26538 N/A
9:15 am 09:15 Sunny 65 18.5 64 18 97 97 SSW 6 9 29.8 1009 10 16.0934 N/A
9:35 am 09:35 Partly Cloudy 66 19.1 65 18.4 96 96 S 9 15 29.8 1009 10 16.0934 N/A
9:55 am 09:55 Partly Cloudy 67 19.5 65 18.5 94 94 SSW 12 19 29.8 1009 10 16.0934 N/A
10:15 am 10:15 Partly Cloudy 69 20.5 65 18.1 86 86 S 12 19 29.8 1009 10 16.0934 N/A
10:35 am 10:35 Mostly Cloudy 71 21.7 65 18.4 82 82 S 9 15 29.8 1009 10 16.0934 N/A
10:55 am 10:55 Partly Cloudy 72 22.1 65 18.1 78 78 S 10 17 29.8 1009 10 16.0934 N/A
11:15 am 11:15 Mostly Cloudy 71 21.9 64 17.5 76 76 SW 10 17 29.8 1009 10 16.0934 N/A
11:35 am 11:35 Mostly Cloudy 73 23 65 18.3 75 75 SSW 8 13 29.77 1008 10 16.0934 N/A
11:55 am 11:55 Partly Cloudy 74 23.1 65 18.1 74 74 S 8 13 29.77 1008 10 16.0934 N/A
12:15 pm 12:15 Partly Cloudy 75 23.7 65 18.1 71 71 S 7 11 29.77 1008 10 16.0934 N/A
12:35 pm 12:35 Partly Cloudy 75 24 65 18.3 71 71 S 8 13 29.77 1008 10 16.0934 N/A
12:55 pm 12:55 Partly Cloudy 74 23.2 64 17.6 71 71 SSW 6 9 29.77 1008 10 16.0934 N/A
1:15 pm 13:15 Partly Cloudy 75 24 64 17.9 69 69 S 12 19 29.77 1008 10 16.0934 N/A
1:35 pm 13:35 Partly Cloudy 75 23.9 65 18.3 71 71 S 14 22 29.77 1008 10 16.0934 N/A
1:55 pm 13:55 Partly Cloudy 77 24.8 66 18.7 69 69 S 10 17 29.77 1008 10 16.0934 N/A
2:15 pm 14:15 Sunny 77 25.1 66 18.7 68 68 S 13 20 29.77 1008 10 16.0934 N/A
2:35 pm 14:35 Sunny 77 25 66 19 69 69 S 8 13 29.74 1007 10 16.0934 N/A
2:55 pm 14:55 Partly Cloudy 77 25 65 18.1 66 66 S 12 19 29.74 1007 10 16.0934 N/A
3:15 pm 15:15 Sunny 78 25.4 64 17.9 63 63 S 10 17 29.74 1007 10 16.0934 N/A
3:35 pm 15:35 Sunny 79 25.9 64 17.9 61 61 SSE 10 17 29.71 1006 10 16.0934 N/A
3:55 pm 15:55 Partly Cloudy 79 26.2 66 18.7 63 63 S 9 15 29.71 1006 10 16.0934 N/A
4:15 pm 16:15 Sunny 79 25.9 65 18.4 63 63 S 9 15 29.71 1006 10 16.0934 N/A
4:35 pm 16:35 Sunny 78 25.7 65 18.2 63 63 S 8 13 29.68 1005 10 16.0934 N/A
4:55 pm 16:55 Sunny 80 26.7 65 18.5 61 61 S 9 15 29.68 1005 10 16.0934 N/A
5:15 pm 17:15 Sunny 77 25.2 64 18 64 64 SSE 9 15 29.71 1006 10 16.0934 N/A
5:35 pm 17:35 Sunny 78 25.5 65 18.2 64 64 SSE 12 19 29.68 1005 10 16.0934 N/A
5:55 pm 17:55 Sunny 77 25.2 65 18.2 65 65 SSE 8 13 29.71 1006 10 16.0934 N/A
6:15 pm 18:15 Sunny 78 25.7 64 18 63 63 S 9 15 29.68 1005 10 16.0934 N/A
6:35 pm 18:35 Sunny 79 25.9 64 17.8 61 61 SSE 8 13 29.68 1005 10 16.0934 N/A
6:55 pm 18:55 Sunny 78 25.6 64 17.7 62 62 S 7 11 29.68 1005 10 16.0934 N/A
7:15 pm 19:15 Sunny 78 25.3 64 17.5 62 62 SSE 7 11 29.71 1006 10 16.0934 N/A
7:35 pm 19:35 Sunny 77 25.2 64 17.5 62 62 SE 8 13 29.71 1006 10 16.0934 N/A
7:55 pm 19:55 Sunny 77 24.8 64 17.7 65 65 SSE 8 13 29.71 1006 10 16.0934 N/A
8:15 pm 20:15 Sunny 76 24.5 64 17.5 65 65 SSE 7 11 29.71 1006 10 16.0934 N/A
8:35 pm 20:35 Sunny 74 23.6 64 17.7 70 70 SE 6 9 29.71 1006 10 16.0934 N/A
8:55 pm 20:55 Sunny 74 23.1 64 17.5 71 71 SE 7 11 29.71 1006 10 16.0934 N/A
9:15 pm 21:15 Clear 72 22.2 64 17.5 75 75 SE 6 9 29.74 1007 10 16.0934 N/A
9:35 pm 21:35 Clear 71 21.7 63 17.2 76 76 SE 6 9 29.74 1007 10 16.0934 N/A
9:55 pm 21:55 Clear 70 21 63 17.2 79 79 SE 6 9 29.77 1008 10 16.0934 N/A
10:15 pm 22:15 Clear 69 20.7 63 17.1 80 80 SE 7 11 29.77 1008 10 16.0934 N/A
10:35 pm 22:35 Clear 69 20.5 63 17.3 82 82 SE 7 11 29.8 1009 10 16.0934 N/A
10:55 pm 22:55 Clear 70 21 64 17.5 81 81 SE 8 13 29.8 1009 10 16.0934 N/A
11:15 pm 23:15 Clear 69 20.7 64 17.6 83 83 SE 6 9 29.8 1009 10 16.0934 N/A
11:35 pm 23:35 Clear 68 20.2 64 17.5 85 85 SSE 7 11 29.8 1009 10 16.0934 N/A
11:55 pm 23:55 Clear 68 19.9 64 17.5 86 86 SSE 8 13 29.8 1009 10 16.0934 N/A

Powered by AerisWeather